Location: Serpentine
(32.3617°S, 115.9768°E)
Time: 23:46:40
(UTC+08:00)

X-37B - Visible Passes

Search period start: 25 May 2020 00:00
Search period end: 04 June 2020 00:00
Orbit: 389 x 390 km, 44.9° (Epoch: 18 May)

Date Brightness Start Highest point End Pass type
(mag) Time Alt. Az. Time Alt. Az. Time Alt. Az.
25 May ? 17:41:52 10° W 17:44:56 39° SSW 17:48:01 10° SE visible
25 May ? 19:21:00 10° SW 19:21:04 10° SW 19:21:04 10° SW visible
26 May ? 18:22:03 10° WSW 18:24:07 15° SSW 18:25:50 11° SSE visible
28 May ? 18:04:10 10° SSW 18:05:22 11° SSW 18:06:32 10° S visible
01 Jun ? 19:03:27 10° SSW 19:03:33 10° SSW 19:03:33 10° SSW visible
02 Jun ? 18:06:01 10° SSW 18:07:25 12° SSE 18:08:26 11° SSE visible
03 Jun ? 18:43:54 10° SSW 18:45:46 22° S 18:45:46 22° S visible
